Hourly Data Report for July 14, 2021

PRINCE RUPERT
BRITISH COLUMBIA
Current Station Operator: NAVCAN

54°17'10.000" N
130°26'41.000" W
35.40 m
1066482
71022
YPR

Download Data

Hourly Data (July 2021)
Hourly Data Report for July 14, 2021
TIME
LST
Temp Definition
°C
Dew Point Definition
°C
Rel Hum Definition
%
Precip. Amount Definition
mm

Wind Dir Definition
10's deg

Wind Spd Definition
km/h
Visibility Definition
km
Stn Press Definition
kPa
Hmdx Definition


Wind Chill Definition


Weather Definition


00:00 12.2 8.7 79 0.0 29 5 16.1 101.62     LegendNANA
01:00 11.9 9.1 83 0.0 LegendMM 5 16.1 101.61     LegendNANA
02:00 11.8 9.2 84 0.0 8 4 16.1 101.60     LegendNANA
03:00 11.4 9.2 86 0.0 9 5 16.1 101.59     LegendNANA
04:00 9.9 8.5 91 0.0   0 16.1 101.58     LegendNANA
05:00 10.5 9.1 91 0.0   0 16.1 101.58     LegendNANA
06:00 11.7 9.8 88 0.0   0 16.1 101.57     LegendNANA
07:00 12.1 10.0 87 0.0 LegendMM 4 16.1 101.54     LegendNANA
08:00 12.5 9.3 80 0.0 LegendMM 4 16.1 101.54     LegendNANA
09:00 12.6 9.7 82 0.0 24 5 16.1 101.54     LegendNANA
10:00 13.3 10.1 81 0.0 24 8 16.1 101.53     LegendNANA
11:00 13.4 10.4 82 0.0 24 8 16.1 101.53     LegendNANA
12:00 14.2 10.2 77 0.0 24 13 16.1 101.53     LegendNANA
13:00 14.5 11.1 80 0.0 24 9 16.1 101.53     LegendNANA
14:00 14.6 10.2 75 0.0 24 11 16.1 101.50     LegendNANA
15:00 14.6 10.3 75 0.0 25 11 16.1 101.49     LegendNANA
16:00 14.2 9.7 74 0.0 28 11 16.1 101.47     LegendNANA
17:00 14.5 9.2 70 0.0 26 9 16.1 101.40     LegendNANA
18:00 13.7 8.8 72 0.0 29 9 16.1 101.37     LegendNANA
19:00 13.2 8.9 75 0.0 31 5 16.1 101.34     LegendNANA
20:00 12.8 8.8 76 0.0 LegendMM 4 16.1 101.29     LegendNANA
21:00 12.1 9.5 84 0.0 LegendMM 4 16.1 101.26     LegendNANA
22:00 12.0 8.9 81 0.0   0 16.1 101.24     LegendNANA
23:00 12.0 9.4 84 0.0   0 16.1 101.23     LegendNANA

Notes on Data Quality.

Legend

  • E = Estimated
  • M = Missing
  • NA = Not Available*
  • [empty] = Indicates an unobserved value
Date modified: